| time (UTC) | temp F | wind direction | speed knots | gust knots | rain 1hr in | rain 24hr in | rain mn in | humidity % | barometer mb |
| 20260506024554 | 50 | 62 | 5.2 | 7.0 | 0.00 | 0.00 | 0.00 | 83 | 1014.5 |
| 20260506024050 | 50 | 90 | 7.0 | 11.3 | 0.00 | 0.00 | 0.00 | 83 | 1014.5 |
| 20260506023546 | 50 | 8 | 5.2 | 8.7 | 0.00 | 0.00 | 0.00 | 83 | 1014.3 |
| 20260506023044 | 50 | 3 | 4.3 | 13.0 | 0.00 | 0.00 | 0.00 | 83 | 1014.3 |
| 20260506022541 | 50 | 347 | 6.1 | 8.7 | 0.00 | 0.00 | 0.00 | 83 | 1014.1 |
| 20260506022038 | 50 | 30 | 5.2 | 11.3 | 0.00 | 0.00 | 0.00 | 84 | 1013.9 |
| 20260506021536 | 50 | 46 | 5.2 | 8.7 | 0.00 | 0.00 | 0.00 | 84 | 1013.9 |
| 20260506021033 | 50 | 18 | 4.3 | 7.8 | 0.00 | 0.00 | 0.00 | 84 | 1013.8 |
| 20260506020530 | 50 | 318 | 8.7 | 13.0 | 0.00 | 0.00 | 0.00 | 83 | 1013.6 |
| 20260506020028 | 50 | 9 | 9.6 | 13.0 | 0.00 | 0.00 | 0.00 | 83 | 1013.4 |
| 20260506015525 | 50 | 356 | 5.2 | 8.7 | 0.00 | 0.00 | 0.00 | 83 | 1013.0 |
| 20260506015021 | 50 | 14 | 6.1 | 13.9 | 0.00 | 0.00 | 0.00 | 83 | 1013.2 |
| 20260506014519 | 50 | 31 | 12.2 | 15.6 | 0.00 | 0.00 | 0.00 | 82 | 1013.0 |
| 20260506014015 | 50 | 356 | 5.2 | 12.2 | 0.00 | 0.00 | 0.00 | 82 | 1013.1 |
| 20260506013513 | 50 | 359 | 9.6 | 14.8 | 0.00 | 0.00 | 0.00 | 82 | 1012.7 |
| 20260506013009 | 50 | 49 | 5.2 | 11.3 | 0.00 | 0.00 | 0.00 | 82 | 1012.5 |
| 20260506012506 | 51 | 34 | 8.7 | 12.2 | 0.00 | 0.00 | 0.00 | 82 | 1012.5 |
| 20260506012003 | 51 | 357 | 7.8 | 12.2 | 0.00 | 0.00 | 0.00 | 82 | 1012.7 |
| 20260506011500 | 51 | 0 | 4.3 | 7.0 | 0.00 | 0.00 | 0.00 | 81 | 1012.9 |
| 20260506010956 | 51 | 65 | 3.5 | 9.6 | 0.00 | 0.00 | 0.00 | 82 | 1012.8 |
| 20260506010456 | 51 | 354 | 5.2 | 13.0 | 0.00 | 0.00 | 0.00 | 81 | 1012.8 |
| 20260506005951 | 51 | 34 | 7.0 | 8.7 | 0.00 | 0.00 | 0.00 | 81 | 1012.6 |
| 20260506005449 | 51 | 32 | 5.2 | 7.8 | 0.00 | 0.00 | 0.00 | 81 | 1012.5 |
| 20260506004944 | 51 | 13 | 8.7 | 19.1 | 0.00 | 0.00 | 0.00 | 80 | 1012.3 |
| 20260506004443 | 51 | 24 | 7.0 | 11.3 | 0.00 | 0.00 | 0.00 | 80 | 1012.5 |
| 20260506003938 | 51 | 15 | 7.8 | 14.8 | 0.00 | 0.00 | 0.00 | 80 | 1012.7 |
| 20260506003435 | 51 | 33 | 7.0 | 11.3 | 0.00 | 0.00 | 0.00 | 80 | 1012.6 |
| 20260506002931 | 51 | 20 | 6.1 | 13.9 | 0.00 | 0.00 | 0.00 | 80 | 1012.6 |
| 20260506002427 | 51 | 9 | 5.2 | 9.6 | 0.00 | 0.00 | 0.00 | 80 | 1012.5 |
| 20260506001923 | 51 | 3 | 7.8 | 14.8 | 0.00 | 0.00 | 0.00 | 79 | 1012.1 |
| 20260506001420 | 51 | 13 | 3.5 | 7.0 | 0.00 | 0.00 | 0.00 | 80 | 1012.0 |
| 20260506000918 | 51 | 356 | 7.8 | 13.0 | 0.00 | 0.00 | 0.00 | 79 | 1012.1 |
| 20260506000416 | 52 | 1 | 8.7 | 13.9 | 0.00 | 0.00 | 0.00 | 79 | 1012.1 |
| 20260505235912 | 52 | 27 | 4.3 | 13.9 | 0.00 | 0.00 | 0.00 | 79 | 1012.4 |
| 20260505235410 | 52 | 342 | 7.0 | 12.2 | 0.00 | 0.00 | 0.00 | 78 | 1012.1 |
| 20260505234907 | 52 | 23 | 9.6 | 13.0 | 0.00 | 0.00 | 0.00 | 78 | 1012.2 |
| 20260505234404 | 52 | 75 | 8.7 | 13.0 | 0.00 | 0.00 | 0.00 | 78 | 1012.2 |
| 20260505233901 | 52 | 27 | 7.0 | 13.0 | 0.00 | 0.00 | 0.00 | 77 | 1012.5 |
| 20260505233358 | 52 | 12 | 7.8 | 13.0 | 0.00 | 0.00 | 0.00 | 77 | 1011.9 |
| 20260505232855 | 52 | 63 | 7.0 | 13.0 | 0.00 | 0.00 | 0.00 | 77 | 1012.1 |
| 20260505232354 | 52 | 16 | 7.0 | 13.0 | 0.00 | 0.00 | 0.00 | 76 | 1011.9 |
| 20260505231850 | 52 | 18 | 8.7 | 13.9 | 0.00 | 0.00 | 0.00 | 77 | 1011.8 |
| 20260505231347 | 52 | 54 | 3.5 | 13.0 | 0.00 | 0.00 | 0.00 | 77 | 1011.8 |
| 20260505230845 | 52 | 23 | 3.5 | 14.8 | 0.00 | 0.00 | 0.00 | 77 | 1011.6 |
| 20260505230342 | 52 | 6 | 5.2 | 18.2 | 0.00 | 0.00 | 0.00 | 77 | 1011.5 |
| 20260505225839 | 52 | 26 | 3.5 | 12.2 | 0.00 | 0.00 | 0.00 | 78 | 1011.5 |
| 20260505225336 | 53 | 353 | 10.4 | 15.6 | 0.00 | 0.00 | 0.00 | 77 | 1011.4 |
| 20260505224831 | 53 | 355 | 13.0 | 16.5 | 0.00 | 0.00 | 0.00 | 77 | 1011.3 |
| 20260505224330 | 53 | 8 | 5.2 | 14.8 | 0.00 | 0.00 | 0.00 | 77 | 1011.1 |
| 20260505223826 | 53 | 310 | 7.0 | 13.0 | 0.00 | 0.00 | 0.00 | 77 | 1011.1 |
| 20260505223323 | 53 | 11 | 8.7 | 19.1 | 0.00 | 0.00 | 0.00 | 77 | 1011.2 |
| 20260505222819 | 53 | 358 | 6.1 | 20.0 | 0.00 | 0.00 | 0.00 | 78 | 1010.9 |
| 20260505222315 | 53 | 8 | 11.3 | 13.9 | 0.00 | 0.00 | 0.00 | 78 | 1010.3 |
| 20260505221813 | 53 | 35 | 5.2 | 13.9 | 0.00 | 0.00 | 0.00 | 79 | 1010.7 |
| 20260505221309 | 53 | 58 | 5.2 | 13.0 | 0.00 | 0.00 | 0.00 | 79 | 1010.7 |
| 20260505220806 | 54 | 64 | 7.8 | 9.6 | 0.00 | 0.00 | 0.00 | 79 | 1010.9 |
| 20260505220303 | 53 | 19 | 7.0 | 12.2 | 0.00 | 0.00 | 0.00 | 79 | 1010.7 |
| 20260505215802 | 53 | 28 | 7.8 | 12.2 | 0.00 | 0.00 | 0.00 | 79 | 1011.1 |
| 20260505215259 | 53 | 359 | 9.6 | 14.8 | 0.00 | 0.00 | 0.00 | 80 | 1010.7 |
| 20260505214756 | 53 | 337 | 9.6 | 20.0 | 0.00 | 0.00 | 0.00 | 80 | 1010.7 |
| 20260505214254 | 53 | 1 | 11.3 | 18.2 | 0.00 | 0.00 | 0.00 | 80 | 1010.5 |
| 20260505213751 | 53 | 329 | 9.6 | 13.9 | 0.00 | 0.00 | 0.00 | 80 | 1010.9 |
| 20260505213248 | 53 | 37 | 7.0 | 14.8 | 0.00 | 0.00 | 0.00 | 80 | 1011.0 |
| 20260505212743 | 53 | 351 | 12.2 | 20.0 | 0.00 | 0.00 | 0.00 | 80 | 1011.0 |
| 20260505212242 | 54 | 29 | 5.2 | 13.9 | 0.00 | 0.00 | 0.00 | 81 | 1010.9 |
| 20260505211738 | 54 | 19 | 3.5 | 12.2 | 0.00 | 0.00 | 0.00 | 82 | 1010.6 |
| 20260505211236 | 54 | 9 | 6.1 | 16.5 | 0.00 | 0.00 | 0.00 | 83 | 1010.1 |
| 20260505210732 | 54 | 33 | 6.1 | 9.6 | 0.00 | 0.00 | 0.00 | 84 | 1010.3 |
| 20260505210229 | 54 | 50 | 9.6 | 14.8 | 0.00 | 0.00 | 0.00 | 84 | 1010.3 |
| 20260505205726 | 54 | 52 | 7.8 | 9.6 | 0.00 | 0.00 | 0.00 | 84 | 1010.2 |
| 20260505205224 | 54 | 57 | 5.2 | 13.9 | 0.00 | 0.00 | 0.00 | 85 | 1010.2 |
| 20260505204720 | 54 | 9 | 13.0 | 18.2 | 0.00 | 0.00 | 0.00 | 84 | 1010.5 |
| 20260505204218 | 54 | 41 | 8.7 | 18.2 | 0.00 | 0.00 | 0.00 | 85 | 1010.4 |
| 20260505203715 | 54 | 9 | 2.6 | 9.6 | 0.00 | 0.00 | 0.00 | 85 | 1010.7 |
| 20260505203212 | 55 | 350 | 6.1 | 12.2 | 0.00 | 0.00 | 0.00 | 84 | 1010.5 |
| 20260505202708 | 55 | 356 | 7.0 | 13.9 | 0.00 | 0.00 | 0.00 | 84 | 1010.3 |
| 20260505202204 | 55 | 16 | 3.5 | 9.6 | 0.00 | 0.00 | 0.00 | 84 | 1010.0 |
| 20260505201700 | 55 | 3 | 5.2 | 11.3 | 0.00 | 0.00 | 0.00 | 84 | 1010.0 |
| 20260505201159 | 55 | 25 | 7.0 | 11.3 | 0.00 | 0.00 | 0.00 | 84 | 1010.2 |
| 20260505200657 | 55 | 64 | 10.4 | 15.6 | 0.00 | 0.00 | 0.00 | 84 | 1010.1 |
| 20260505200153 | 55 | 336 | 7.0 | 16.5 | 0.00 | 0.00 | 0.00 | 84 | 1010.2 |
| 20260505195649 | 55 | 2 | 7.0 | 13.9 | 0.00 | 0.00 | 0.00 | 85 | 1010.2 |
| 20260505195146 | 55 | 355 | 6.1 | 13.9 | 0.00 | 0.00 | 0.00 | 85 | 1010.2 |
| 20260505194644 | 56 | 76 | 7.0 | 12.2 | 0.00 | 0.00 | 0.00 | 85 | 1009.9 |
| 20260505194139 | 55 | 351 | 8.7 | 13.9 | 0.00 | 0.00 | 0.00 | 85 | 1009.8 |
| 20260505193636 | 55 | 353 | 6.1 | 13.9 | 0.00 | 0.00 | 0.00 | 86 | 1010.2 |
| 20260505193133 | 55 | 5 | 6.1 | 7.8 | 0.00 | 0.00 | 0.00 | 85 | 1010.0 |
| 20260505192632 | 56 | 352 | 3.5 | 9.6 | 0.00 | 0.00 | 0.00 | 86 | 1009.9 |
| 20260505192129 | 56 | 330 | 3.5 | 9.6 | 0.00 | 0.00 | 0.00 | 86 | 1009.8 |
| 20260505191628 | 56 | 346 | 7.0 | 13.9 | 0.00 | 0.00 | 0.00 | 86 | 1009.7 |
| 20260505191125 | 56 | 348 | 5.2 | 13.9 | 0.00 | 0.00 | 0.00 | 86 | 1009.9 |
| 20260505190621 | 56 | 358 | 7.0 | 15.6 | 0.00 | 0.00 | 0.00 | 86 | 1009.6 |
| 20260505190116 | 56 | 331 | 8.7 | 12.2 | 0.00 | 0.00 | 0.00 | 86 | 1009.3 |
| 20260505185613 | 56 | 1 | 9.6 | 12.2 | 0.00 | 0.00 | 0.00 | 86 | 1009.5 |
| 20260505185109 | 56 | 52 | 5.2 | 7.0 | 0.00 | 0.00 | 0.00 | 86 | 1009.6 |
| 20260505184606 | 56 | 19 | 8.7 | 12.2 | 0.00 | 0.00 | 0.00 | 86 | 1009.5 |
| 20260505184102 | 56 | 13 | 5.2 | 11.3 | 0.00 | 0.00 | 0.00 | 87 | 1009.4 |
| 20260505183559 | 56 | 353 | 5.2 | 13.0 | 0.00 | 0.00 | 0.00 | 87 | 1009.4 |
| 20260505183057 | 56 | 7 | 8.7 | 15.6 | 0.00 | 0.00 | 0.00 | 87 | 1009.2 |
| 20260505182553 | 56 | 19 | 7.0 | 13.9 | 0.00 | 0.00 | 0.00 | 87 | 1009.4 |
| 20260505182050 | 56 | 358 | 8.7 | 13.9 | 0.00 | 0.00 | 0.00 | 87 | 1009.5 |
| 20260505181546 | 56 | 353 | 11.3 | 18.2 | 0.00 | 0.00 | 0.00 | 87 | 1009.5 |
| 20260505181044 | 56 | 10 | 11.3 | 20.0 | 0.00 | 0.00 | 0.00 | 87 | 1009.5 |
| 20260505180539 | 56 | 89 | 12.2 | 18.2 | 0.00 | 0.00 | 0.00 | 87 | 1009.2 |
| 20260505180038 | 56 | 334 | 8.7 | 13.0 | 0.00 | 0.00 | 0.00 | 88 | 1008.8 |
| 20260505175537 | 57 | 19 | 11.3 | 14.8 | 0.00 | 0.00 | 0.00 | 87 | 1008.5 |
| 20260505175035 | 56 | 20 | 8.7 | 14.8 | 0.00 | 0.00 | 0.00 | 88 | 1008.0 |
| 20260505174532 | 57 | 7 | 5.2 | 11.3 | 0.00 | 0.00 | 0.00 | 88 | 1008.7 |
| 20260505174028 | 57 | 15 | 6.1 | 11.3 | 0.00 | 0.00 | 0.00 | 88 | 1008.7 |
| 20260505173525 | 57 | 16 | 11.3 | 15.6 | 0.00 | 0.00 | 0.00 | 88 | 1008.6 |
| 20260505173021 | 57 | 15 | 11.3 | 13.9 | 0.00 | 0.00 | 0.00 | 88 | 1008.6 |
| 20260505172520 | 57 | 19 | 6.1 | 13.9 | 0.00 | 0.00 | 0.00 | 89 | 1008.7 |
| 20260505172015 | 57 | 0 | 13.9 | 18.2 | 0.00 | 0.00 | 0.00 | 89 | 1008.6 |
| 20260505171510 | 57 | 9 | 5.2 | 12.2 | 0.00 | 0.00 | 0.00 | 89 | 1008.5 |
| 20260505171008 | 57 | 13 | 9.6 | 11.3 | 0.00 | 0.00 | 0.00 | 89 | 1008.1 |
| 20260505170504 | 58 | 351 | 7.0 | 16.5 | 0.00 | 0.00 | 0.00 | 89 | 1008.1 |
| 20260505170000 | 58 | 3 | 6.1 | 11.3 | 0.00 | 0.00 | 0.00 | 89 | 1008.0 |
| 20260505165456 | 59 | 330 | 12.2 | 19.1 | 0.00 | 0.00 | 0.00 | 89 | 1008.1 |
| 20260505164951 | 59 | 325 | 8.7 | 13.9 | 0.00 | 0.00 | 0.00 | 89 | 1007.9 |
| 20260505164448 | 59 | 7 | 5.2 | 12.2 | 0.00 | 0.00 | 0.00 | 89 | 1007.9 |
| 20260505163946 | 60 | 86 | 7.8 | 13.0 | 0.00 | 0.00 | 0.00 | 89 | 1007.6 |
| 20260505163444 | 60 | 347 | 8.7 | 12.2 | 0.00 | 0.00 | 0.00 | 89 | 1007.7 |
| 20260505162944 | 60 | 14 | 7.8 | 13.0 | 0.00 | 0.00 | 0.00 | 89 | 1007.8 |
| 20260505162439 | 60 | 359 | 8.7 | 14.8 | 0.00 | 0.00 | 0.00 | 89 | 1007.5 |
| 20260505161936 | 61 | 349 | 7.0 | 9.6 | 0.00 | 0.00 | 0.00 | 89 | 1007.4 |
| 20260505161432 | 62 | 353 | 7.0 | 13.9 | 0.00 | 0.00 | 0.00 | 89 | 1007.5 |
| 20260505160930 | 63 | 43 | 7.8 | 13.9 | 0.00 | 0.00 | 0.00 | 89 | 1007.3 |
| 20260505160423 | 64 | 6 | 9.6 | 13.0 | 0.00 | 0.00 | 0.00 | 90 | 1007.2 |
| 20260505152858 | 71 | 136 | 1.7 | 3.5 | 0.00 | 0.00 | 0.00 | 82 | 1006.6 |
| 20260505152356 | 72 | 140 | 1.7 | 5.2 | 0.00 | 0.00 | 0.00 | 81 | 1006.4 |
| 20260505151855 | 71 | 165 | 0.9 | 1.7 | 0.00 | 0.00 | 0.00 | 81 | 1006.5 |
| 20260505151353 | 72 | 151 | 2.6 | 6.1 | 0.00 | 0.00 | 0.00 | 81 | 1006.2 |
| 20260505150849 | 71 | 149 | 1.7 | 8.7 | 0.00 | 0.00 | 0.00 | 81 | 1006.3 |
| 20260505150346 | 72 | 134 | 3.5 | 5.2 | 0.00 | 0.00 | 0.00 | 79 | 1006.2 |
| 20260505140311 | 68 | 106 | 3.5 | 9.6 | 0.00 | 0.00 | 0.00 | 85 | 1006.0 |
| 20260505130229 | 66 | 148 | 3.5 | 3.5 | 0.00 | 0.00 | 0.00 | 86 | 1006.7 |
| 20260505124719 | 66 | 94 | 1.7 | 7.8 | 0.00 | 0.00 | 0.00 | 87 | 1006.6 |
| 20260505124216 | 66 | 126 | 1.7 | 7.8 | 0.00 | 0.00 | 0.00 | 86 | 1006.5 |
| 20260505123711 | 66 | 99 | 3.5 | 7.0 | 0.00 | 0.00 | 0.00 | 86 | 1006.4 |
| 20260505123209 | 66 | 160 | 2.6 | 9.6 | 0.00 | 0.00 | 0.00 | 86 | 1006.4 |
| 20260505122705 | 66 | 110 | 3.5 | 7.0 | 0.00 | 0.00 | 0.00 | 86 | 1006.4 |
| 20260505122202 | 66 | 94 | 5.2 | 7.8 | 0.00 | 0.00 | 0.00 | 86 | 1006.2 |
| 20260505121659 | 66 | 99 | 0.9 | 7.0 | 0.00 | 0.00 | 0.00 | 86 | 1006.4 |
| 20260505121155 | 66 | 109 | 2.6 | 6.1 | 0.00 | 0.00 | 0.00 | 86 | 1006.1 |
| 20260505120651 | 66 | 110 | 4.3 | 6.1 | 0.00 | 0.00 | 0.00 | 86 | 1006.3 |
| 20260505120147 | 66 | 88 | 3.5 | 7.0 | 0.00 | 0.00 | 0.00 | 85 | 1006.3 |
| 20260505115641 | 66 | 75 | 2.6 | 7.8 | 0.00 | 0.00 | 0.00 | 86 | 1006.2 |
| 20260505115139 | 66 | 92 | 2.6 | 9.6 | 0.00 | 0.00 | 0.00 | 85 | 1006.2 |
| 20260505114636 | 66 | 116 | 1.7 | 7.0 | 0.00 | 0.00 | 0.00 | 85 | 1006.1 |
| 20260505114132 | 66 | 56 | 4.3 | 7.0 | 0.00 | 0.00 | 0.00 | 85 | 1006.0 |
| 20260505113629 | 66 | 74 | 2.6 | 7.0 | 0.00 | 0.00 | 0.00 | 85 | 1005.9 |
| 20260505113126 | 66 | 109 | 4.3 | 7.0 | 0.00 | 0.00 | 0.00 | 85 | 1006.0 |
| 20260505112622 | 66 | 74 | 2.6 | 7.0 | 0.00 | 0.00 | 0.00 | 85 | 1005.8 |
| 20260505112120 | 66 | 56 | 3.5 | 11.3 | 0.00 | 0.00 | 0.00 | 85 | 1005.9 |
| 20260505111614 | 66 | 144 | 2.6 | 6.1 | 0.00 | 0.00 | 0.00 | 85 | 1005.8 |
| 20260505111110 | 66 | 113 | 1.7 | 6.1 | 0.00 | 0.00 | 0.00 | 85 | 1005.6 |
| 20260505110607 | 66 | 92 | 3.5 | 7.8 | 0.00 | 0.00 | 0.00 | 85 | 1005.5 |
| 20260505110104 | 66 | 93 | 3.5 | 8.7 | 0.00 | 0.00 | 0.00 | 85 | 1005.4 |
| 20260505102039 | 66 | 90 | 2.6 | 5.2 | 0.00 | 0.00 | 0.00 | 85 | 1005.2 |
| 20260505101537 | 66 | 83 | 3.5 | 6.1 | 0.00 | 0.00 | 0.00 | 85 | 1004.9 |
| 20260505101033 | 66 | 105 | 3.5 | 5.2 | 0.00 | 0.00 | 0.00 | 85 | 1005.0 |
| 20260505100531 | 66 | 66 | 2.6 | 6.1 | 0.00 | 0.00 | 0.00 | 85 | 1004.9 |
| 20260505100027 | 66 | 22 | 3.5 | 9.6 | 0.00 | 0.00 | 0.00 | 85 | 1004.8 |
| 20260505095524 | 66 | 98 | 1.7 | 7.8 | 0.00 | 0.00 | 0.00 | 85 | 1004.8 |
| 20260505095020 | 66 | 92 | 2.6 | 5.2 | 0.00 | 0.00 | 0.00 | 86 | 1004.8 |
| 20260505094517 | 66 | 132 | 1.7 | 5.2 | 0.00 | 0.00 | 0.00 | 86 | 1004.8 |
| 20260505094013 | 66 | 85 | 2.6 | 3.5 | 0.00 | 0.00 | 0.00 | 86 | 1004.9 |
| 20260505093509 | 66 | 73 | 0.9 | 3.5 | 0.00 | 0.00 | 0.00 | 86 | 1005.0 |
| 20260505093007 | 66 | 96 | 1.7 | 2.6 | 0.00 | 0.00 | 0.00 | 87 | 1004.8 |
| 20260505092504 | 66 | 90 | 2.6 | 5.2 | 0.00 | 0.00 | 0.00 | 87 | 1004.9 |
| 20260505092002 | 66 | 60 | 2.6 | 5.2 | 0.00 | 0.00 | 0.00 | 87 | 1005.0 |
| 20260505091459 | 66 | 95 | 0.9 | 2.6 | 0.00 | 0.00 | 0.00 | 87 | 1005.1 |
| 20260505090957 | 66 | 132 | 2.6 | 5.2 | 0.00 | 0.00 | 0.00 | 87 | 1005.0 |
| 20260505090455 | 66 | 89 | 2.6 | 5.2 | 0.00 | 0.00 | 0.00 | 87 | 1005.0 |
| 20260505085952 | 66 | 137 | 1.7 | 2.6 | 0.00 | 0.00 | 0.00 | 86 | 1005.1 |
| 20260505085450 | 66 | 109 | 1.7 | 5.2 | 0.00 | 0.00 | 0.00 | 86 | 1005.1 |
| 20260505084948 | 66 | 104 | 1.7 | 3.5 | 0.00 | 0.00 | 0.00 | 86 | 1005.3 |
| 20260505084446 | 66 | 88 | 2.6 | 6.1 | 0.00 | 0.00 | 0.00 | 85 | 1005.0 |
| 20260505083943 | 66 | 74 | 4.3 | 7.0 | 0.00 | 0.00 | 0.00 | 85 | 1005.1 |
| 20260505083441 | 66 | 79 | 1.7 | 3.5 | 0.00 | 0.00 | 0.00 | 84 | 1005.1 |
| 20260505082937 | 67 | 87 | 4.3 | 7.0 | 0.00 | 0.00 | 0.00 | 84 | 1005.3 |
| 20260505082432 | 67 | 87 | 2.6 | 3.5 | 0.00 | 0.00 | 0.00 | 83 | 1005.3 |
| 20260505081930 | 67 | 129 | 3.5 | 6.1 | 0.00 | 0.00 | 0.00 | 82 | 1005.4 |
| 20260505081427 | 68 | 91 | 2.6 | 7.0 | 0.00 | 0.00 | 0.00 | 82 | 1005.2 |
| 20260505080923 | 68 | 100 | 1.7 | 8.7 | 0.00 | 0.00 | 0.00 | 81 | 1005.2 |
| 20260505080419 | 68 | 90 | 2.6 | 3.5 | 0.00 | 0.00 | 0.00 | 80 | 1005.5 |
| 20260505075915 | 68 | 128 | 1.7 | 3.5 | 0.00 | 0.00 | 0.00 | 80 | 1005.5 |
| 20260505075412 | 68 | 99 | 4.3 | 7.8 | 0.00 | 0.00 | 0.00 | 80 | 1005.4 |
| 20260505074909 | 68 | 87 | 3.5 | 7.0 | 0.00 | 0.00 | 0.00 | 80 | 1005.4 |
| 20260505074406 | 68 | 107 | 4.3 | 5.2 | 0.00 | 0.00 | 0.00 | 80 | 1006.0 |
| 20260505073903 | 68 | 67 | 4.3 | 7.0 | 0.00 | 0.00 | 0.00 | 80 | 1005.9 |
| 20260505073401 | 68 | 38 | 2.6 | 6.1 | 0.00 | 0.00 | 0.00 | 81 | 1006.0 |
| 20260505072858 | 68 | 86 | 2.6 | 3.5 | 0.00 | 0.00 | 0.00 | 81 | 1005.6 |
| 20260505072354 | 68 | 84 | 0.9 | 5.2 | 0.00 | 0.00 | 0.00 | 81 | 1006.0 |
| 20260505071850 | 68 | 49 | 2.6 | 2.6 | 0.00 | 0.00 | 0.00 | 81 | 1006.0 |
| 20260505071347 | 68 | 105 | 0.9 | 0.9 | 0.00 | 0.00 | 0.00 | 81 | 1006.1 |
| 20260505070845 | 68 | 54 | 0.9 | 2.6 | 0.00 | 0.00 | 0.00 | 81 | 1006.0 |
| 20260505070341 | 68 | 90 | 0.0 | 3.5 | 0.00 | 0.00 | 0.00 | 81 | 1005.9 |
| 20260505065837 | 68 | 33 | 1.7 | 3.5 | 0.00 | 0.00 | 0.00 | 81 | 1006.4 |
| 20260505065334 | 68 | 73 | 0.9 | 2.6 | 0.00 | 0.00 | 0.00 | 81 | 1006.1 |
| 20260505064831 | 68 | 51 | 0.9 | 1.7 | 0.00 | 0.00 | 0.00 | 80 | 1006.2 |
| 20260505064327 | 68 | 14 | 1.7 | 1.7 | 0.00 | 0.00 | 0.00 | 80 | 1006.2 |
| 20260505063826 | 68 | 0 | 1.7 | 3.5 | 0.00 | 0.00 | 0.00 | 79 | 1006.0 |
| 20260505063321 | 68 | 38 | 1.7 | 2.6 | 0.00 | 0.00 | 0.00 | 79 | 1006.0 |
| 20260505062818 | 68 | 104 | 1.7 | 2.6 | 0.00 | 0.00 | 0.00 | 79 | 1006.0 |
| 20260505062316 | 68 | 136 | 0.9 | 3.5 | 0.00 | 0.00 | 0.00 | 79 | 1005.3 |
| 20260505061812 | 68 | 168 | 2.6 | 7.0 | 0.00 | 0.00 | 0.00 | 79 | 1005.2 |
| 20260505061311 | 68 | 156 | 0.9 | 5.2 | 0.00 | 0.00 | 0.00 | 79 | 1004.9 |
| 20260505060808 | 68 | 144 | 2.6 | 5.2 | 0.00 | 0.00 | 0.00 | 79 | 1005.1 |
| 20260505060305 | 68 | 148 | 2.6 | 7.0 | 0.00 | 0.00 | 0.00 | 78 | 1005.2 |
| 20260505055800 | 68 | 146 | 3.5 | 6.1 | 0.00 | 0.00 | 0.00 | 78 | 1005.2 |
| 20260505055256 | 68 | 179 | 1.7 | 7.8 | 0.00 | 0.00 | 0.00 | 78 | 1005.5 |
| 20260505054754 | 68 | 116 | 6.1 | 8.7 | 0.00 | 0.00 | 0.00 | 77 | 1005.3 |
| 20260505054251 | 68 | 176 | 2.6 | 7.0 | 0.00 | 0.00 | 0.00 | 77 | 1005.3 |
| 20260505053749 | 68 | 181 | 5.2 | 8.7 | 0.00 | 0.00 | 0.00 | 76 | 1005.6 |
| 20260505053246 | 69 | 162 | 3.5 | 8.7 | 0.00 | 0.00 | 0.00 | 76 | 1005.4 |
| 20260505052743 | 69 | 152 | 6.1 | 7.8 | 0.00 | 0.00 | 0.00 | 75 | 1005.5 |
| 20260505052240 | 69 | 149 | 4.3 | 11.3 | 0.00 | 0.00 | 0.00 | 75 | 1005.8 |
| 20260505051737 | 69 | 194 | 5.2 | 7.8 | 0.00 | 0.00 | 0.00 | 75 | 1005.4 |
| 20260505051235 | 69 | 156 | 5.2 | 9.6 | 0.00 | 0.00 | 0.00 | 74 | 1005.4 |
| 20260505050732 | 69 | 161 | 7.8 | 11.3 | 0.00 | 0.00 | 0.00 | 75 | 1005.4 |
| 20260505050231 | 69 | 148 | 3.5 | 7.0 | 0.00 | 0.00 | 0.00 | 76 | 1005.6 |
| 20260505041700 | 70 | 143 | 2.6 | 12.2 | 0.00 | 0.00 | 0.00 | 71 | 1005.8 |
| 20260505041158 | 70 | 193 | 2.6 | 11.3 | 0.00 | 0.00 | 0.00 | 71 | 1006.0 |
| 20260505040655 | 70 | 154 | 3.5 | 7.8 | 0.00 | 0.00 | 0.00 | 71 | 1005.6 |
| 20260505040152 | 69 | 134 | 3.5 | 8.7 | 0.00 | 0.00 | 0.00 | 72 | 1006.1 |
| 20260505035648 | 70 | 170 | 7.0 | 12.2 | 0.00 | 0.00 | 0.00 | 71 | 1005.8 |
| 20260505035144 | 70 | 148 | 5.2 | 9.6 | 0.00 | 0.00 | 0.00 | 70 | 1006.0 |
| 20260505034641 | 70 | 154 | 3.5 | 7.0 | 0.00 | 0.00 | 0.00 | 70 | 1006.0 |
| 20260505034139 | 70 | 188 | 4.3 | 8.7 | 0.00 | 0.00 | 0.00 | 69 | 1006.5 |
| 20260505033635 | 70 | 169 | 5.2 | 9.6 | 0.00 | 0.00 | 0.00 | 69 | 1006.4 |
| 20260505033133 | 70 | 197 | 5.2 | 8.7 | 0.00 | 0.00 | 0.00 | 69 | 1006.4 |
| 20260505032631 | 70 | 148 | 7.8 | 9.6 | 0.00 | 0.00 | 0.00 | 69 | 1006.4 |
| 20260505032127 | 70 | 153 | 3.5 | 9.6 | 0.00 | 0.00 | 0.00 | 70 | 1006.6 |
| 20260505031624 | 70 | 128 | 3.5 | 6.1 | 0.00 | 0.00 | 0.00 | 70 | 1006.7 |
| 20260505031120 | 69 | 123 | 1.7 | 7.0 | 0.00 | 0.00 | 0.00 | 70 | 1006.8 |
| 20260505030618 | 70 | 172 | 4.3 | 5.2 | 0.00 | 0.00 | 0.00 | 70 | 1006.9 |
| 20260505030113 | 70 | 153 | 3.5 | 5.2 | 0.00 | 0.00 | 0.00 | 69 | 1007.1 |
| 20260505025609 | 70 | 91 | 2.6 | 5.2 | 0.00 | 0.00 | 0.00 | 69 | 1006.9 |
| 20260505025108 | 70 | 146 | 3.5 | 6.1 | 0.00 | 0.00 | 0.00 | 69 | 1007.0 |